Time,TemperatureF,DewpointF,PressureIn,WindDirection,WindDirectionDegrees,WindSpeedMPH,WindSpeedGustMPH,Humidity,HourlyPrecipIn,Conditions,Clouds,dailyrainin,SoftwareType,DateUTC
2013-01-19 00:00:00,36.8,27.6,30.15,SSW,207,18.0,18.0,69,0.00,,,0.00,Wunderground v.1.15,2013-01-19 05:00:00,
2013-01-19 00:10:00,36.7,27.5,30.15,SSW,198,17.0,17.0,69,0.00,,,0.00,Wunderground v.1.15,2013-01-19 05:10:00,
2013-01-19 00:15:00,36.6,27.4,30.15,South,182,16.0,17.0,69,0.00,,,0.00,Wunderground v.1.15,2013-01-19 05:15:00,
2013-01-19 00:20:00,36.7,27.5,30.14,SSW,196,15.0,15.0,69,0.00,,,0.00,Wunderground v.1.15,2013-01-19 05:20:00,
2013-01-19 00:25:00,36.8,27.6,30.14,SSW,200,16.0,21.0,69,0.00,,,0.00,Wunderground v.1.15,2013-01-19 05:25:00,
2013-01-19 00:30:00,36.8,27.6,30.14,South,190,16.0,16.0,69,0.00,,,0.00,Wunderground v.1.15,2013-01-19 05:30:00,
2013-01-19 00:35:00,36.9,27.7,30.15,South,178,15.0,16.0,69,0.00,,,0.00,Wunderground v.1.15,2013-01-19 05:35:00,
2013-01-19 00:45:00,36.8,27.6,30.15,SSW,193,12.0,18.0,69,0.00,,,0.00,Wunderground v.1.15,2013-01-19 05:45:00,
2013-01-19 00:50:00,36.8,27.2,30.15,South,184,13.0,13.0,68,0.00,,,0.00,Wunderground v.1.15,2013-01-19 05:50:00,
2013-01-19 00:55:00,36.7,27.5,30.15,South,173,13.0,20.0,69,0.00,,,0.00,Wunderground v.1.15,2013-01-19 05:55:00,
2013-01-19 01:00:00,36.8,27.6,30.15,South,190,13.0,13.0,69,0.00,,,0.00,Wunderground v.1.15,2013-01-19 06:00:00,
2013-01-19 01:05:00,36.8,27.6,30.16,SSW,193,13.0,15.0,69,0.00,,,0.00,Wunderground v.1.15,2013-01-19 06:05:00,
2013-01-19 01:10:00,36.7,27.5,30.15,SSW,196,11.0,11.0,69,0.00,,,0.00,Wunderground v.1.15,2013-01-19 06:10:00,
2013-01-19 01:15:00,36.8,27.6,30.15,SW,219,11.0,13.0,69,0.00,,,0.00,Wunderground v.1.15,2013-01-19 06:15:00,
2013-01-19 01:20:00,36.8,27.2,30.15,SW,229,13.0,13.0,68,0.00,,,0.00,Wunderground v.1.15,2013-01-19 06:20:00,
2013-01-19 01:25:00,36.8,27.2,30.15,South,182,13.0,13.0,68,0.00,,,0.00,Wunderground v.1.15,2013-01-19 06:25:00,
2013-01-19 01:30:00,36.7,27.1,30.15,SSW,208,12.0,12.0,68,0.00,,,0.00,Wunderground v.1.15,2013-01-19 06:30:00,
2013-01-19 01:35:00,36.5,27.3,30.15,SSW,213,11.0,14.0,69,0.00,,,0.00,Wunderground v.1.15,2013-01-19 06:35:00,
2013-01-19 01:40:00,36.6,27.4,30.16,SSW,200,10.0,13.0,69,0.00,,,0.00,Wunderground v.1.15,2013-01-19 06:40:00,
2013-01-19 01:50:00,36.5,27.3,30.15,SSW,196,10.0,10.0,69,0.00,,,0.00,Wunderground v.1.15,2013-01-19 06:50:00,
2013-01-19 01:55:00,36.6,27.4,30.15,SSW,210,11.0,11.0,69,0.00,,,0.00,Wunderground v.1.15,2013-01-19 06:55:00,
2013-01-19 02:00:00,36.6,27.0,30.16,SSW,194,11.0,11.0,68,0.00,,,0.00,Wunderground v.1.15,2013-01-19 07:00:00,
2013-01-19 02:05:00,36.6,27.0,30.16,SSW,194,11.0,11.0,68,0.00,,,0.00,Wunderground v.1.15,2013-01-19 07:05:00,
2013-01-19 02:10:00,36.5,26.9,30.15,SSW,209,12.0,14.0,68,0.00,,,0.00,Wunderground v.1.15,2013-01-19 07:10:00,
2013-01-19 02:20:00,36.7,26.8,30.16,SSW,196,11.0,12.0,67,0.00,,,0.00,Wunderground v.1.15,2013-01-19 07:20:00,
2013-01-19 02:25:00,36.7,26.8,30.16,SSW,194,11.0,12.0,67,0.00,,,0.00,Wunderground v.1.15,2013-01-19 07:25:00,
2013-01-19 02:30:00,37.0,26.7,30.16,SW,230,10.0,11.0,66,0.00,,,0.00,Wunderground v.1.15,2013-01-19 07:30:00,
2013-01-19 02:35:00,37.1,26.8,30.16,SW,215,10.0,11.0,66,0.00,,,0.00,Wunderground v.1.15,2013-01-19 07:35:00,
2013-01-19 02:40:00,37.0,26.7,30.16,SSW,197,10.0,12.0,66,0.00,,,0.00,Wunderground v.1.15,2013-01-19 07:40:00,
2013-01-19 02:45:00,37.0,26.7,30.16,SW,226,10.0,12.0,66,0.00,,,0.00,Wunderground v.1.15,2013-01-19 07:45:00,
2013-01-19 02:55:00,37.4,27.1,30.16,SSW,203,10.0,12.0,66,0.00,,,0.00,Wunderground v.1.15,2013-01-19 07:55:00,
2013-01-19 03:00:00,37.8,26.7,30.16,SSW,209,11.0,11.0,64,0.00,,,0.00,Wunderground v.1.15,2013-01-19 08:00:00,
2013-01-19 03:05:00,38.2,26.7,30.16,SW,219,13.0,13.0,63,0.00,,,0.00,Wunderground v.1.15,2013-01-19 08:05:00,
2013-01-19 03:10:00,38.4,26.9,30.16,SW,225,13.0,13.0,63,0.00,,,0.00,Wunderground v.1.15,2013-01-19 08:10:00,
2013-01-19 03:15:00,39.0,26.7,30.15,WSW,240,14.0,14.0,61,0.00,,,0.00,Wunderground v.1.15,2013-01-19 08:15:00,
2013-01-19 03:25:00,39.1,26.4,30.15,SW,214,15.0,16.0,60,0.00,,,0.00,Wunderground v.1.15,2013-01-19 08:25:00,
2013-01-19 03:30:00,39.2,26.5,30.15,SW,228,16.0,19.0,60,0.00,,,0.00,Wunderground v.1.15,2013-01-19 08:30:00,
2013-01-19 03:35:00,39.1,26.4,30.15,SW,234,15.0,19.0,60,0.00,,,0.00,Wunderground v.1.15,2013-01-19 08:35:00,
2013-01-19 03:40:00,39.5,26.8,30.15,SW,224,16.0,16.0,60,0.00,,,0.00,Wunderground v.1.15,2013-01-19 08:40:00,
2013-01-19 03:45:00,39.5,26.8,30.15,SSW,212,16.0,16.0,60,0.00,,,0.00,Wunderground v.1.15,2013-01-19 08:45:00,
2013-01-19 03:50:00,39.3,26.6,30.15,SW,229,15.0,16.0,60,0.00,,,0.00,Wunderground v.1.15,2013-01-19 08:50:00,
2013-01-19 04:00:00,39.1,26.8,30.14,SW,227,15.0,16.0,61,0.00,,,0.00,Wunderground v.1.15,2013-01-19 09:00:00,
2013-01-19 04:05:00,39.2,26.9,30.14,SSW,209,15.0,16.0,61,0.00,,,0.00,Wunderground v.1.15,2013-01-19 09:05:00,
2013-01-19 04:10:00,39.3,27.0,30.14,SW,222,16.0,20.0,61,0.00,,,0.00,Wunderground v.1.15,2013-01-19 09:10:00,
2013-01-19 04:15:00,39.4,27.1,30.14,SW,223,17.0,20.0,61,0.00,,,0.00,Wunderground v.1.15,2013-01-19 09:15:00,
2013-01-19 04:20:00,39.2,26.9,30.14,SW,219,16.0,23.0,61,0.00,,,0.00,Wunderground v.1.15,2013-01-19 09:20:00,
2013-01-19 04:30:00,39.2,26.9,30.13,WSW,252,16.0,16.0,61,0.00,,,0.00,Wunderground v.1.15,2013-01-19 09:30:00,
2013-01-19 04:35:00,39.1,27.2,30.13,SW,227,16.0,16.0,62,0.00,,,0.00,Wunderground v.1.15,2013-01-19 09:35:00,
2013-01-19 04:40:00,39.2,27.3,30.13,SW,235,15.0,15.0,62,0.00,,,0.00,Wunderground v.1.15,2013-01-19 09:40:00,
2013-01-19 04:45:00,39.2,27.3,30.13,SW,228,15.0,15.0,62,0.00,,,0.00,Wunderground v.1.15,2013-01-19 09:45:00,
2013-01-19 04:50:00,39.1,27.2,30.13,SSW,196,16.0,21.0,62,0.00,,,0.00,Wunderground v.1.15,2013-01-19 09:50:00,
2013-01-19 04:55:00,39.2,27.3,30.13,SW,236,16.0,21.0,62,0.00,,,0.00,Wunderground v.1.15,2013-01-19 09:55:00,
2013-01-19 05:05:00,39.1,27.6,30.12,SW,232,15.0,16.0,63,0.00,,,0.00,Wunderground v.1.15,2013-01-19 10:05:00,
2013-01-19 05:10:00,39.1,27.6,30.12,SW,223,15.0,15.0,63,0.00,,,0.00,Wunderground v.1.15,2013-01-19 10:10:00,
2013-01-19 05:15:00,39.1,27.6,30.12,SW,234,15.0,15.0,63,0.00,,,0.00,Wunderground v.1.15,2013-01-19 10:15:00,
2013-01-19 05:20:00,38.9,27.8,30.12,SSW,200,14.0,14.0,64,0.00,,,0.00,Wunderground v.1.15,2013-01-19 10:20:00,
2013-01-19 05:25:00,38.9,27.8,30.12,SW,226,14.0,15.0,64,0.00,,,0.00,Wunderground v.1.15,2013-01-19 10:25:00,
2013-01-19 05:35:00,39.0,27.8,30.12,SW,235,15.0,20.0,64,0.00,,,0.00,Wunderground v.1.15,2013-01-19 10:35:00,
2013-01-19 05:40:00,38.8,28.0,30.12,SW,221,14.0,14.0,65,0.00,,,0.00,Wunderground v.1.15,2013-01-19 10:40:00,
2013-01-19 05:45:00,38.7,27.9,30.12,SSW,213,14.0,14.0,65,0.00,,,0.00,Wunderground v.1.15,2013-01-19 10:45:00,
2013-01-19 05:50:00,38.8,28.0,30.11,SW,229,14.0,14.0,65,0.00,,,0.00,Wunderground v.1.15,2013-01-19 10:50:00,
2013-01-19 05:55:00,38.8,28.0,30.11,West,269,13.0,14.0,65,0.00,,,0.00,Wunderground v.1.15,2013-01-19 10:55:00,
2013-01-19 06:00:00,38.7,27.9,30.11,SSW,213,14.0,14.0,65,0.00,,,0.00,Wunderground v.1.15,2013-01-19 11:00:00,
2013-01-19 06:10:00,38.9,28.1,30.11,SW,231,14.0,19.0,65,0.00,,,0.00,Wunderground v.1.15,2013-01-19 11:10:00,
2013-01-19 07:50:00,38.3,27.9,30.10,SW,218,10.0,10.0,66,0.00,,,0.00,Wunderground v.1.15,2013-01-19 12:50:00,
2013-01-19 07:55:00,38.4,28.0,30.10,SW,228,11.0,11.0,66,0.00,,,0.00,Wunderground v.1.15,2013-01-19 12:55:00,
2013-01-19 08:00:00,38.4,28.0,30.10,SW,215,11.0,11.0,66,0.00,,,0.00,Wunderground v.1.15,2013-01-19 13:00:00,
2013-01-19 08:05:00,38.4,28.0,30.10,SW,223,11.0,26.0,66,0.00,,,0.00,Wunderground v.1.15,2013-01-19 13:05:00,
2013-01-19 08:10:00,38.6,28.2,30.10,SSW,198,12.0,26.0,66,0.00,,,0.00,Wunderground v.1.15,2013-01-19 13:10:00,
2013-01-19 08:15:00,38.5,28.1,30.10,SW,216,11.0,26.0,66,0.00,,,0.00,Wunderground v.1.15,2013-01-19 13:15:00,
2013-01-19 08:20:00,38.7,28.3,30.10,SW,217,11.0,26.0,66,0.00,,,0.00,Wunderground v.1.15,2013-01-19 13:20:00,
2013-01-19 08:25:00,38.6,28.2,30.10,SSW,195,11.0,26.0,66,0.00,,,0.00,Wunderground v.1.15,2013-01-19 13:25:00,
2013-01-19 08:30:00,38.6,28.2,30.10,SW,218,11.0,26.0,66,0.00,,,0.00,Wunderground v.1.15,2013-01-19 13:30:00,
2013-01-19 08:40:00,38.8,28.4,30.09,SW,234,11.0,26.0,66,0.00,,,0.00,Wunderground v.1.15,2013-01-19 13:40:00,
2013-01-19 08:45:00,39.0,28.6,30.09,SW,222,11.0,26.0,66,0.00,,,0.00,Wunderground v.1.15,2013-01-19 13:45:00,
2013-01-19 08:50:00,38.9,28.5,30.09,SW,217,10.0,26.0,66,0.00,,,0.00,Wunderground v.1.15,2013-01-19 13:50:00,
2013-01-19 08:55:00,39.1,28.7,30.09,SSW,213,10.0,26.0,66,0.00,,,0.00,Wunderground v.1.15,2013-01-19 13:55:00,
2013-01-19 09:00:00,39.3,28.9,30.09,SSW,213,11.0,11.0,66,0.00,,,0.00,Wunderground v.1.15,2013-01-19 14:00:00,
2013-01-19 09:05:00,39.6,28.8,30.09,SSW,213,11.0,13.0,65,0.00,,,0.00,Wunderground v.1.15,2013-01-19 14:05:00,
2013-01-19 09:15:00,39.9,29.1,30.09,SSW,209,10.0,26.0,65,0.00,,,0.00,Wunderground v.1.15,2013-01-19 14:15:00,
2013-01-19 09:20:00,40.1,29.3,30.09,SSW,193,11.0,26.0,65,0.00,,,0.00,Wunderground v.1.15,2013-01-19 14:20:00,
2013-01-19 09:25:00,40.4,29.6,30.09,South,183,12.0,26.0,65,0.00,,,0.00,Wunderground v.1.15,2013-01-19 14:25:00,
2013-01-19 09:30:00,40.5,29.7,30.09,SSW,209,12.0,26.0,65,0.00,,,0.00,Wunderground v.1.15,2013-01-19 14:30:00,
2013-01-19 09:35:00,40.8,29.6,30.09,South,172,12.0,26.0,64,0.00,,,0.00,Wunderground v.1.15,2013-01-19 14:35:00,
2013-01-19 09:45:00,41.1,29.8,30.09,SSW,203,13.0,26.0,64,0.00,,,0.00,Wunderground v.1.15,2013-01-19 14:45:00,
2013-01-19 09:50:00,41.3,30.0,30.09,SSW,204,13.0,13.0,64,0.00,,,0.00,Wunderground v.1.15,2013-01-19 14:50:00,
2013-01-19 09:55:00,41.5,29.8,30.09,SSW,193,13.0,18.0,63,0.00,,,0.00,Wunderground v.1.15,2013-01-19 14:55:00,
2013-01-19 10:00:00,41.7,30.0,30.09,SSW,207,14.0,14.0,63,0.00,,,0.00,Wunderground v.1.15,2013-01-19 15:00:00,
2013-01-19 10:05:00,41.9,30.2,30.09,SSW,209,14.0,15.0,63,0.00,,,0.00,Wunderground v.1.15,2013-01-19 15:05:00,
2013-01-19 10:10:00,42.0,30.3,30.09,SSW,200,13.0,13.0,63,0.00,,,0.00,Wunderground v.1.15,2013-01-19 15:10:00,
2013-01-19 10:20:00,42.5,30.4,30.09,South,185,14.0,14.0,62,0.00,,,0.00,Wunderground v.1.15,2013-01-19 15:20:00,
2013-01-19 10:25:00,42.6,30.5,30.09,SSW,204,14.0,26.0,62,0.00,,,0.00,Wunderground v.1.15,2013-01-19 15:25:00,
2013-01-19 10:30:00,42.8,30.7,30.09,SSW,195,14.0,26.0,62,0.00,,,0.00,Wunderground v.1.15,2013-01-19 15:30:00,
2013-01-19 10:35:00,43.0,30.9,30.08,SW,225,14.0,26.0,62,0.00,,,0.00,Wunderground v.1.15,2013-01-19 15:35:00,
2013-01-19 10:40:00,43.2,30.6,30.08,SSW,192,14.0,26.0,61,0.00,,,0.00,Wunderground v.1.15,2013-01-19 15:40:00,
2013-01-19 10:50:00,43.6,31.4,30.09,SW,227,15.0,26.0,62,0.00,,,0.00,Wunderground v.1.15,2013-01-19 15:50:00,
2013-01-19 10:55:00,43.8,31.6,30.08,SW,229,14.0,26.0,62,0.00,,,0.00,Wunderground v.1.15,2013-01-19 15:55:00,
2013-01-19 11:00:00,44.0,31.0,30.08,SW,225,14.0,26.0,60,0.00,,,0.00,Wunderground v.1.15,2013-01-19 16:00:00,
2013-01-19 11:05:00,44.3,31.3,30.07,SSW,212,15.0,26.0,60,0.00,,,0.00,Wunderground v.1.15,2013-01-19 16:05:00,
2013-01-19 11:10:00,44.5,31.5,30.07,SSW,213,15.0,26.0,60,0.00,,,0.00,Wunderground v.1.15,2013-01-19 16:10:00,
2013-01-19 11:15:00,44.7,31.7,30.06,SW,234,15.0,26.0,60,0.00,,,0.00,Wunderground v.1.15,2013-01-19 16:15:00,
2013-01-19 11:25:00,45.1,32.0,30.06,SW,223,15.0,26.0,60,0.00,,,0.00,Wunderground v.1.15,2013-01-19 16:25:00,
2013-01-19 11:30:00,45.4,32.7,30.05,SSW,208,14.0,14.0,61,0.00,,,0.00,Wunderground v.1.15,2013-01-19 16:30:00,
2013-01-19 11:35:00,45.6,32.1,30.05,SW,221,14.0,19.0,59,0.00,,,0.00,Wunderground v.1.15,2013-01-19 16:35:00,
2013-01-19 11:40:00,45.8,32.3,30.04,SW,214,14.0,26.0,59,0.00,,,0.00,Wunderground v.1.15,2013-01-19 16:40:00,
2013-01-19 11:45:00,46.0,32.9,30.04,SW,227,14.0,26.0,60,0.00,,,0.00,Wunderground v.1.15,2013-01-19 16:45:00,
2013-01-19 11:55:00,46.4,32.8,30.03,SW,228,15.0,26.0,59,0.00,,,0.00,Wunderground v.1.15,2013-01-19 16:55:00,
2013-01-19 12:00:00,46.7,32.7,30.03,SW,229,15.0,15.0,58,0.00,,,0.00,Wunderground v.1.15,2013-01-19 17:00:00,
2013-01-19 12:05:00,46.9,32.9,30.03,SW,231,14.0,26.0,58,0.00,,,0.00,Wunderground v.1.15,2013-01-19 17:05:00,
2013-01-19 12:10:00,47.0,33.0,30.02,SW,220,14.0,14.0,58,0.00,,,0.00,Wunderground v.1.15,2013-01-19 17:10:00,
2013-01-19 12:15:00,47.3,33.3,30.02,SW,220,13.0,26.0,58,0.00,,,0.00,Wunderground v.1.15,2013-01-19 17:15:00,
2013-01-19 12:30:00,47.8,33.7,30.01,SW,221,14.0,14.0,58,0.00,,,0.00,Wunderground v.1.15,2013-01-19 17:30:00,
2013-01-19 12:35:00,47.8,33.3,30.00,SW,228,15.0,15.0,57,0.00,,,0.00,Wunderground v.1.15,2013-01-19 17:35:00,
2013-01-19 12:40:00,48.0,33.5,30.00,SW,235,15.0,15.0,57,0.00,,,0.00,Wunderground v.1.15,2013-01-19 17:40:00,
2013-01-19 12:45:00,48.3,34.2,29.99,WSW,247,13.0,26.0,58,0.00,,,0.00,Wunderground v.1.15,2013-01-19 17:45:00,
2013-01-19 12:55:00,48.3,33.3,29.98,SW,218,16.0,26.0,56,0.00,,,0.00,Wunderground v.1.15,2013-01-19 17:55:00,
2013-01-19 13:05:00,48.8,34.2,29.97,SW,221,15.0,19.0,57,0.00,,,0.00,Wunderground v.1.15,2013-01-19 18:05:00,
2013-01-19 13:10:00,49.0,34.9,29.96,SSW,207,14.0,26.0,58,0.00,,,0.00,Wunderground v.1.15,2013-01-19 18:10:00,
2013-01-19 13:15:00,49.1,34.9,29.97,SW,221,15.0,26.0,58,0.00,,,0.00,Wunderground v.1.15,2013-01-19 18:15:00,
2013-01-19 13:20:00,49.3,35.1,29.96,SSW,200,16.0,16.0,58,0.00,,,0.00,Wunderground v.1.15,2013-01-19 18:20:00,
2013-01-19 13:30:00,49.5,34.4,29.95,SSW,212,16.0,16.0,56,0.00,,,0.00,Wunderground v.1.15,2013-01-19 18:30:00,
2013-01-19 13:35:00,49.6,34.5,29.95,WSW,242,16.0,20.0,56,0.00,,,0.00,Wunderground v.1.15,2013-01-19 18:35:00,
2013-01-19 13:40:00,49.7,35.1,29.95,WSW,250,16.0,16.0,57,0.00,,,0.00,Wunderground v.1.15,2013-01-19 18:40:00,
2013-01-19 13:45:00,49.7,34.6,29.95,WSW,238,17.0,17.0,56,0.00,,,0.00,Wunderground v.1.15,2013-01-19 18:45:00,
2013-01-19 13:55:00,50.1,35.4,29.94,WSW,250,15.0,26.0,57,0.00,,,0.00,Wunderground v.1.15,2013-01-19 18:55:00,
2013-01-19 14:00:00,50.4,36.2,29.93,WSW,240,15.0,15.0,58,0.00,,,0.00,Wunderground v.1.15,2013-01-19 19:00:00,
2013-01-19 14:05:00,50.2,35.5,29.93,SW,236,15.0,26.0,57,0.00,,,0.00,Wunderground v.1.15,2013-01-19 19:05:00,
2013-01-19 14:10:00,50.2,35.1,29.93,West,277,17.0,17.0,56,0.00,,,0.00,Wunderground v.1.15,2013-01-19 19:10:00,
2013-01-19 14:15:00,50.5,36.3,29.93,SW,217,17.0,26.0,58,0.00,,,0.00,Wunderground v.1.15,2013-01-19 19:15:00,
2013-01-19 14:25:00,50.9,36.6,29.92,SW,226,13.0,26.0,58,0.00,,,0.00,Wunderground v.1.15,2013-01-19 19:25:00,
2013-01-19 14:30:00,50.9,36.2,29.92,SW,235,13.0,26.0,57,0.00,,,0.00,Wunderground v.1.15,2013-01-19 19:30:00,
2013-01-19 14:35:00,50.8,36.5,29.92,WSW,240,14.0,26.0,58,0.00,,,0.00,Wunderground v.1.15,2013-01-19 19:35:00,
2013-01-19 14:40:00,50.9,36.6,29.91,SW,230,14.0,14.0,58,0.00,,,0.00,Wunderground v.1.15,2013-01-19 19:40:00,
2013-01-19 14:55:00,51.2,35.6,29.90,SW,224,15.0,26.0,55,0.00,,,0.00,Wunderground v.1.15,2013-01-19 19:55:00,
2013-01-19 15:05:00,50.9,36.2,29.89,West,261,17.0,17.0,57,0.00,,,0.00,Wunderground v.1.15,2013-01-19 20:05:00,
2013-01-19 15:10:00,50.8,36.5,29.89,WSW,241,15.0,15.0,58,0.00,,,0.00,Wunderground v.1.15,2013-01-19 20:10:00,
2013-01-19 15:15:00,50.9,37.1,29.89,West,261,13.0,26.0,59,0.00,,,0.00,Wunderground v.1.15,2013-01-19 20:15:00,
2013-01-19 15:25:00,51.3,37.0,29.89,WSW,246,12.0,15.0,58,0.00,,,0.00,Wunderground v.1.15,2013-01-19 20:25:00,
2013-01-19 15:30:00,51.0,36.3,29.90,West,260,14.0,26.0,57,0.00,,,0.00,Wunderground v.1.15,2013-01-19 20:30:00,
2013-01-19 15:40:00,50.9,36.2,29.89,West,281,15.0,15.0,57,0.00,,,0.00,Wunderground v.1.15,2013-01-19 20:40:00,
2013-01-19 15:45:00,50.8,36.1,29.89,WSW,255,13.0,26.0,57,0.00,,,0.00,Wunderground v.1.15,2013-01-19 20:45:00,
2013-01-19 15:50:00,50.8,36.1,29.88,WSW,244,13.0,26.0,57,0.00,,,0.00,Wunderground v.1.15,2013-01-19 20:50:00,
2013-01-19 15:55:00,50.7,36.5,29.88,WSW,242,14.0,26.0,58,0.00,,,0.00,Wunderground v.1.15,2013-01-19 20:55:00,
2013-01-19 16:00:00,50.5,36.3,29.87,SW,229,15.0,15.0,58,0.00,,,0.00,Wunderground v.1.15,2013-01-19 21:00:00,
2013-01-19 16:05:00,50.4,36.2,29.86,WSW,247,14.0,19.0,58,0.00,,,0.00,Wunderground v.1.15,2013-01-19 21:05:00,
2013-01-19 16:15:00,50.7,36.9,29.86,WSW,246,12.0,26.0,59,0.00,,,0.00,Wunderground v.1.15,2013-01-19 21:15:00,
2013-01-19 16:20:00,50.6,36.8,29.86,SW,226,11.0,11.0,59,0.00,,,0.00,Wunderground v.1.15,2013-01-19 21:20:00,
2013-01-19 16:25:00,50.2,36.8,29.87,WSW,252,9.0,26.0,60,0.00,,,0.00,Wunderground v.1.15,2013-01-19 21:25:00,
2013-01-19 16:35:00,50.3,36.9,29.87,SW,231,10.0,26.0,60,0.00,,,0.00,Wunderground v.1.15,2013-01-19 21:35:00,
2013-01-19 16:40:00,50.3,36.9,29.88,SW,236,11.0,26.0,60,0.00,,,0.00,Wunderground v.1.15,2013-01-19 21:40:00,
2013-01-19 16:50:00,49.6,37.1,29.88,SW,235,10.0,10.0,62,0.00,,,0.00,Wunderground v.1.15,2013-01-19 21:50:00,
2013-01-19 17:00:00,48.7,36.7,29.89,West,261,9.0,26.0,63,0.00,,,0.00,Wunderground v.1.15,2013-01-19 22:00:00,
2013-01-19 17:05:00,48.4,36.4,29.89,WSW,250,10.0,26.0,63,0.00,,,0.00,Wunderground v.1.15,2013-01-19 22:05:00,
2013-01-19 17:10:00,48.3,36.3,29.89,WSW,251,11.0,11.0,63,0.00,,,0.00,Wunderground v.1.15,2013-01-19 22:10:00,
2013-01-19 17:20:00,47.8,36.2,29.89,SW,219,11.0,11.0,64,0.00,,,0.00,Wunderground v.1.15,2013-01-19 22:20:00,
2013-01-19 17:25:00,47.6,36.0,29.88,SW,219,10.0,19.0,64,0.00,,,0.00,Wunderground v.1.15,2013-01-19 22:25:00,
2013-01-19 17:30:00,47.6,36.0,29.89,SW,223,10.0,10.0,64,0.00,,,0.00,Wunderground v.1.15,2013-01-19 22:30:00,
2013-01-19 17:35:00,47.5,36.3,29.88,WSW,242,10.0,26.0,65,0.00,,,0.00,Wunderground v.1.15,2013-01-19 22:35:00,
2013-01-19 17:40:00,47.6,36.4,29.89,SW,236,10.0,10.0,65,0.00,,,0.00,Wunderground v.1.15,2013-01-19 22:40:00,
2013-01-19 17:45:00,47.4,36.2,29.89,WSW,256,10.0,26.0,65,0.00,,,0.00,Wunderground v.1.15,2013-01-19 22:45:00,
2013-01-19 17:55:00,47.2,36.4,29.89,SW,220,10.0,26.0,66,0.00,,,0.00,Wunderground v.1.15,2013-01-19 22:55:00,
2013-01-19 18:00:00,47.8,36.2,29.89,WSW,250,12.0,26.0,64,0.00,,,0.00,Wunderground v.1.15,2013-01-19 23:00:00,
2013-01-19 18:10:00,47.6,36.4,29.89,SW,234,13.0,26.0,65,0.00,,,0.00,Wunderground v.1.15,2013-01-19 23:10:00,
2013-01-19 18:15:00,47.6,36.0,29.89,SW,221,13.0,26.0,64,0.00,,,0.00,Wunderground v.1.15,2013-01-19 23:15:00,
2013-01-19 18:20:00,47.6,36.4,29.88,SSW,213,13.0,13.0,65,0.00,,,0.00,Wunderground v.1.15,2013-01-19 23:20:00,
2013-01-19 18:30:00,47.6,36.4,29.88,SW,223,14.0,14.0,65,0.00,,,0.00,Wunderground v.1.15,2013-01-19 23:30:00,
2013-01-19 18:35:00,47.2,36.0,29.88,SW,228,13.0,26.0,65,0.00,,,0.00,Wunderground v.1.15,2013-01-19 23:35:00,
2013-01-19 18:40:00,47.1,36.3,29.87,SW,221,13.0,13.0,66,0.00,,,0.00,Wunderground v.1.15,2013-01-19 23:40:00,
2013-01-19 18:45:00,47.3,36.5,29.87,SW,228,14.0,14.0,66,0.00,,,0.00,Wunderground v.1.15,2013-01-19 23:45:00,
2013-01-19 18:50:00,47.0,36.2,29.87,SW,227,14.0,26.0,66,0.00,,,0.00,Wunderground v.1.15,2013-01-19 23:50:00,
2013-01-19 19:00:00,47.2,36.4,29.87,SW,221,15.0,15.0,66,0.00,,,0.00,Wunderground v.1.15,2013-01-20 00:00:00,
2013-01-19 19:05:00,47.1,36.7,29.87,SW,230,15.0,26.0,67,0.00,,,0.00,Wunderground v.1.15,2013-01-20 00:05:00,
2013-01-19 19:10:00,47.0,36.6,29.87,SW,215,15.0,26.0,67,0.00,,,0.00,Wunderground v.1.15,2013-01-20 00:10:00,
2013-01-19 19:15:00,47.0,36.6,29.87,SW,219,15.0,26.0,67,0.00,,,0.00,Wunderground v.1.15,2013-01-20 00:15:00,
2013-01-19 19:20:00,47.0,36.6,29.87,SSW,202,14.0,14.0,67,0.00,,,0.00,Wunderground v.1.15,2013-01-20 00:20:00,
2013-01-19 19:30:00,47.0,36.6,29.87,SW,217,14.0,26.0,67,0.00,,,0.00,Wunderground v.1.15,2013-01-20 00:30:00,
2013-01-19 19:35:00,47.4,36.6,29.88,SW,225,15.0,26.0,66,0.00,,,0.00,Wunderground v.1.15,2013-01-20 00:35:00,
2013-01-19 19:45:00,47.2,36.8,29.89,SW,222,13.0,26.0,67,0.00,,,0.00,Wunderground v.1.15,2013-01-20 00:45:00,
2013-01-19 19:50:00,47.0,36.6,29.88,SSW,211,13.0,26.0,67,0.00,,,0.00,Wunderground v.1.15,2013-01-20 00:50:00,
2013-01-19 19:55:00,47.0,36.6,29.88,SW,224,13.0,26.0,67,0.00,,,0.00,Wunderground v.1.15,2013-01-20 00:55:00,
2013-01-19 20:05:00,46.6,36.6,29.88,SW,223,14.0,16.0,68,0.00,,,0.00,Wunderground v.1.15,2013-01-20 01:05:00,
2013-01-19 20:10:00,46.6,37.0,29.88,SW,235,13.0,13.0,69,0.00,,,0.00,Wunderground v.1.15,2013-01-20 01:10:00,
2013-01-19 20:15:00,46.7,37.1,29.88,WSW,247,13.0,26.0,69,0.00,,,0.00,Wunderground v.1.15,2013-01-20 01:15:00,
2013-01-19 20:20:00,47.0,37.0,29.88,SSW,209,14.0,14.0,68,0.00,,,0.00,Wunderground v.1.15,2013-01-20 01:20:00,
2013-01-19 20:30:00,46.9,36.9,29.88,WSW,240,13.0,13.0,68,0.00,,,0.00,Wunderground v.1.15,2013-01-20 01:30:00,
2013-01-19 20:40:00,46.9,36.9,29.88,SW,232,14.0,14.0,68,0.00,,,0.00,Wunderground v.1.15,2013-01-20 01:40:00,
2013-01-19 20:45:00,46.6,37.0,29.88,West,273,14.0,26.0,69,0.00,,,0.00,Wunderground v.1.15,2013-01-20 01:45:00,
2013-01-19 20:50:00,46.3,37.0,29.89,SSW,207,13.0,13.0,70,0.00,,,0.00,Wunderground v.1.15,2013-01-20 01:50:00,
2013-01-19 21:00:00,45.9,37.0,29.88,SW,231,13.0,13.0,71,0.00,,,0.00,Wunderground v.1.15,2013-01-20 02:00:00,
2013-01-19 21:05:00,46.0,37.1,29.89,SW,236,13.0,26.0,71,0.00,,,0.00,Wunderground v.1.15,2013-01-20 02:05:00,
2013-01-19 21:10:00,45.8,36.9,29.88,SW,224,13.0,26.0,71,0.00,,,0.00,Wunderground v.1.15,2013-01-20 02:10:00,
2013-01-19 21:15:00,46.0,37.1,29.89,WSW,245,13.0,26.0,71,0.00,,,0.00,Wunderground v.1.15,2013-01-20 02:15:00,
2013-01-19 21:20:00,45.9,37.4,29.88,SW,225,13.0,26.0,72,0.00,,,0.00,Wunderground v.1.15,2013-01-20 02:20:00,
2013-01-19 21:30:00,45.8,37.3,29.88,WSW,242,14.0,26.0,72,0.00,,,0.00,Wunderground v.1.15,2013-01-20 02:30:00,
2013-01-19 21:35:00,45.7,37.2,29.88,SW,233,13.0,26.0,72,0.00,,,0.00,Wunderground v.1.15,2013-01-20 02:35:00,
2013-01-19 21:40:00,46.1,37.6,29.88,WSW,255,14.0,26.0,72,0.00,,,0.00,Wunderground v.1.15,2013-01-20 02:40:00,
2013-01-19 21:45:00,45.6,37.1,29.88,WSW,244,14.0,26.0,72,0.00,,,0.00,Wunderground v.1.15,2013-01-20 02:45:00,
2013-01-19 21:50:00,45.4,37.2,29.88,SW,236,13.0,26.0,73,0.00,,,0.00,Wunderground v.1.15,2013-01-20 02:50:00,
2013-01-19 21:55:00,45.5,37.3,29.88,SW,229,14.0,26.0,73,0.00,,,0.00,Wunderground v.1.15,2013-01-20 02:55:00,
2013-01-19 22:05:00,45.3,37.5,29.88,West,275,14.0,26.0,74,0.00,,,0.00,Wunderground v.1.15,2013-01-20 03:05:00,
2013-01-19 22:15:00,45.2,37.4,29.88,SW,235,15.0,26.0,74,0.00,,,0.00,Wunderground v.1.15,2013-01-20 03:15:00,
2013-01-19 22:20:00,45.3,37.5,29.88,WSW,244,15.0,26.0,74,0.00,,,0.00,Wunderground v.1.15,2013-01-20 03:20:00,
2013-01-19 22:25:00,45.8,38.0,29.88,WSW,240,17.0,26.0,74,0.00,,,0.00,Wunderground v.1.15,2013-01-20 03:25:00,
2013-01-19 22:30:00,45.9,37.7,29.88,WSW,241,19.0,19.0,73,0.00,,,0.00,Wunderground v.1.15,2013-01-20 03:30:00,
2013-01-19 22:40:00,45.9,37.7,29.88,WSW,255,19.0,26.0,73,0.00,,,0.00,Wunderground v.1.15,2013-01-20 03:40:00,
2013-01-19 22:45:00,46.1,37.9,29.88,WNW,291,20.0,26.0,73,0.00,,,0.00,Wunderground v.1.15,2013-01-20 03:45:00,
2013-01-19 22:55:00,45.9,37.7,29.88,WSW,254,18.0,21.0,73,0.00,,,0.00,Wunderground v.1.15,2013-01-20 03:55:00,
2013-01-19 23:00:00,46.1,37.9,29.89,SW,233,19.0,19.0,73,0.00,,,0.00,Wunderground v.1.15,2013-01-20 04:00:00,
2013-01-19 23:05:00,45.9,37.7,29.89,West,265,20.0,20.0,73,0.00,,,0.00,Wunderground v.1.15,2013-01-20 04:05:00,
2013-01-19 23:15:00,45.8,38.0,29.89,West,269,22.0,26.0,74,0.00,,,0.00,Wunderground v.1.15,2013-01-20 04:15:00,
2013-01-19 23:20:00,45.6,37.4,29.89,WSW,253,20.0,20.0,73,0.00,,,0.00,Wunderground v.1.15,2013-01-20 04:20:00,
2013-01-19 23:25:00,45.4,37.6,29.89,West,264,20.0,26.0,74,0.00,,,0.00,Wunderground v.1.15,2013-01-20 04:25:00,
2013-01-19 23:30:00,45.5,37.3,29.89,WSW,240,21.0,21.0,73,0.00,,,0.00,Wunderground v.1.15,2013-01-20 04:30:00,
2013-01-19 23:35:00,45.6,37.4,29.90,West,259,23.0,23.0,73,0.00,,,0.00,Wunderground v.1.15,2013-01-20 04:35:00,
2013-01-19 23:40:00,45.5,37.3,29.89,WSW,247,24.0,24.0,73,0.00,,,0.00,Wunderground v.1.15,2013-01-20 04:40:00,
2013-01-19 23:45:00,44.9,37.5,29.90,West,265,23.0,26.0,75,0.00,,,0.00,Wunderground v.1.15,2013-01-20 04:45:00,
2013-01-19 23:55:00,44.7,37.3,29.90,WSW,254,21.0,26.0,75,0.00,,,0.00,Wunderground v.1.15,2013-01-20 04:55:00,